Location: Vancouver
(49.2500°N, 123.1330°W)
Time: 07:49:25
(UTC-08:00)

Cosmos 676 Rocket - Visible Passes

Search period start: 27 February 2017 00:00
Search period end: 09 March 2017 00:00
Orbit: 755 x 784 km, 74.0° (Epoch: 26 February)

Date Brightness Start Highest point End Pass type
(mag) Time Alt. Az. Time Alt. Az. Time Alt. Az.
27 Feb7.002:27:56ESE02:27:56ESE02:18:00Nvisible
27 Feb 5.7 04:08:26 22° SSE 04:08:26 22° SSE 04:10:12 10° SSE visible
27 Feb 6.0 05:48:55 11° SW 05:48:55 11° SW 05:49:08 10° SW visible
27 Feb 4.3 18:41:09 10° SSW 18:46:21 74° WNW 18:51:37 10° NNE visible
27 Feb 6.8 20:26:18 10° W 20:29:26 16° NW 20:32:35 10° N visible
28 Feb7.003:35:14SE03:35:14SE03:21:59NNWvisible
28 Feb 6.4 19:48:24 10° W 19:52:26 22° NW 19:56:31 10° N visible
01 Mar 5.8 19:10:54 10° WSW 19:15:32 32° NW 19:20:15 10° N visible
02 Mar 5.1 18:33:44 10° SW 18:38:45 47° WNW 18:43:51 10° NNE visible
02 Mar 7.0 20:20:43 10° NW 20:22:16 11° NW 20:23:51 10° NNW visible
03 Mar 6.7 19:42:02 10° W 19:45:10 16° NW 19:48:19 10° N visible
04 Mar 6.4 19:04:07 10° W 19:08:09 22° NW 19:12:14 10° N visible
05 Mar 5.9 18:26:37 10° WSW 18:31:15 32° NW 18:35:58 10° N visible
06 Mar 6.9 19:36:27 10° NW 19:38:00 11° NW 19:39:33 10° NNW visible
07 Mar 6.6 18:57:46 10° W 19:00:53 16° NW 19:04:02 10° N visible
